EZY85GP EPKK-EGGD

Flight info

Callsign EZY85GP
Flight time 2h 17m
Altitude 38000
Route OMFOL DCT DINOV DCT NAROX DCT OSTRA DCT NOMKA DCT WRB DCT GALSO Q63 ERING L179 ICTAM
Aircraft A320/M-SDE3FGHIRWY/LB1

Departure

Time 2026-05-04 11:05
Airport Kraków John Paul II International Airport (EPKK)

Arrival

Time 2026-05-04 13:23
Airport Bristol Airport (EGGD)
Time Latitude Longitude Altitude Speed Heading
2026-05-04 10:51 50.07333 19.80208 800 ft 0 kts 168°
2026-05-04 10:56 50.07356 19.80201 800 ft 2 kts 168°
2026-05-04 10:56 50.07373 19.80195 800 ft 2 kts 168°
2026-05-04 10:56 50.07390 19.80189 800 ft 3 kts 146°
2026-05-04 10:57 50.07404 19.80172 800 ft 3 kts 135°
2026-05-04 10:57 50.07414 19.80150 800 ft 3 kts 98°
2026-05-04 10:57 50.07415 19.80134 800 ft 0 kts 77°
2026-05-04 11:00 50.07416 19.80139 800 ft 4 kts 77°
2026-05-04 11:01 50.07849 19.80335 800 ft 0 kts 348°
2026-05-04 11:05 50.05798 19.64491 4673 ft 260 kts 256°
2026-05-04 11:06 50.05408 19.61697 5530 ft 268 kts 256°
2026-05-04 11:06 50.05012 19.58849 6352 ft 271 kts 256°
2026-05-04 11:06 50.04609 19.55964 7371 ft 275 kts 256°
2026-05-04 11:06 50.04198 19.53030 8283 ft 280 kts 256°
2026-05-04 11:08 50.05819 19.29898 13400 ft 349 kts 293°
2026-05-04 11:10 50.12362 19.06104 18292 ft 369 kts 294°
2026-05-04 11:12 50.19623 18.79560 22743 ft 391 kts 293°
2026-05-04 11:12 50.20691 18.75636 23361 ft 394 kts 293°
2026-05-04 11:12 50.21763 18.71672 23893 ft 397 kts 293°
2026-05-04 11:12 50.22838 18.67684 24400 ft 400 kts 293°
2026-05-04 11:13 50.23918 18.63656 24886 ft 402 kts 293°
2026-05-04 11:13 50.24990 18.59604 25374 ft 405 kts 292°
2026-05-04 11:13 50.26050 18.55569 25841 ft 407 kts 293°
2026-05-04 11:13 50.27123 18.51461 26314 ft 410 kts 292°
2026-05-04 11:14 50.27487 18.50061 26469 ft 410 kts 292°
2026-05-04 11:14 50.29647 18.41739 27369 ft 415 kts 292°
2026-05-04 11:16 50.38185 18.08953 30330 ft 433 kts 293°
2026-05-04 11:16 50.39319 18.04566 30624 ft 435 kts 293°
2026-05-04 11:16 50.40456 18.00162 30926 ft 437 kts 293°
2026-05-04 11:17 50.41595 17.95735 31199 ft 439 kts 293°
2026-05-04 11:17 50.42734 17.91288 31469 ft 441 kts 293°
2026-05-04 11:19 50.51177 17.60591 34070 ft 435 kts 295°
2026-05-04 11:19 50.52426 17.56270 34416 ft 434 kts 295°
2026-05-04 11:19 50.53659 17.51948 34759 ft 433 kts 295°
2026-05-04 11:19 50.54877 17.47626 35080 ft 432 kts 294°
2026-05-04 11:20 50.56085 17.43311 35391 ft 431 kts 294°
2026-05-04 11:20 50.57289 17.38997 35695 ft 430 kts 294°
2026-05-04 11:20 50.58492 17.34692 35998 ft 429 kts 294°
2026-05-04 11:20 50.59693 17.30393 36287 ft 428 kts 294°
2026-05-04 11:22 50.67997 17.00498 37995 ft 423 kts 293°
2026-05-04 11:22 50.69166 16.96247 38003 ft 422 kts 294°
2026-05-04 11:23 50.71476 16.87809 38000 ft 421 kts 293°
2026-05-04 11:25 50.79584 16.58107 38002 ft 421 kts 293°
2026-05-04 11:25 50.81888 16.49596 38008 ft 421 kts 293°
2026-05-04 11:27 50.92160 16.11233 38018 ft 420 kts 292°
2026-05-04 11:28 50.94410 16.02694 38015 ft 419 kts 292°
2026-05-04 11:28 50.96635 15.94145 38017 ft 419 kts 291°
2026-05-04 11:29 50.98841 15.85598 38014 ft 418 kts 291°
2026-05-04 11:29 51.01047 15.77050 38009 ft 418 kts 291°
2026-05-04 11:33 51.16263 15.17265 38006 ft 416 kts 290°
2026-05-04 11:33 51.18403 15.08704 38008 ft 416 kts 290°
2026-05-04 11:34 51.20251 15.00017 38005 ft 413 kts 279°
2026-05-04 11:34 51.20810 14.90914 38003 ft 412 kts 274°
2026-05-04 11:35 51.21262 14.81812 38001 ft 412 kts 274°
2026-05-04 11:35 51.21715 14.72708 37999 ft 412 kts 273°
2026-05-04 11:36 51.22149 14.63600 38002 ft 412 kts 273°
2026-05-04 11:36 51.22577 14.54555 38005 ft 412 kts 273°
2026-05-04 11:37 51.23004 14.45419 38008 ft 412 kts 273°
2026-05-04 11:37 51.23414 14.36331 37993 ft 408 kts 272°
2026-05-04 11:38 51.23814 14.27316 37985 ft 406 kts 272°
2026-05-04 11:38 51.24213 14.18309 37986 ft 407 kts 272°
2026-05-04 11:39 51.24604 14.09280 37995 ft 408 kts 272°
2026-05-04 11:41 51.25917 13.77620 38014 ft 409 kts 271°
2026-05-04 11:41 51.26278 13.68534 38016 ft 409 kts 271°
2026-05-04 11:42 51.26634 13.59462 38014 ft 409 kts 271°
2026-05-04 11:42 51.26979 13.50398 38010 ft 409 kts 271°
2026-05-04 11:43 51.27318 13.41339 38015 ft 409 kts 271°
2026-05-04 11:43 51.27648 13.32264 38013 ft 408 kts 271°
2026-05-04 11:44 51.27973 13.23272 38008 ft 408 kts 271°
2026-05-04 11:44 51.28296 13.14225 38011 ft 408 kts 271°
2026-05-04 11:45 51.28610 13.05170 38014 ft 408 kts 271°
2026-05-04 11:45 51.28912 12.96137 38012 ft 407 kts 271°
2026-05-04 11:46 51.29246 12.87093 38015 ft 408 kts 273°
2026-05-04 11:46 51.29901 12.78091 38021 ft 408 kts 275°
2026-05-04 11:47 51.30672 12.69102 38022 ft 408 kts 275°
2026-05-04 11:47 51.31384 12.60105 38022 ft 408 kts 274°
2026-05-04 11:48 51.32033 12.51110 38027 ft 407 kts 274°
2026-05-04 11:48 51.32660 12.42174 38026 ft 407 kts 274°
2026-05-04 11:49 51.33293 12.33192 38021 ft 407 kts 274°
2026-05-04 11:49 51.33920 12.24202 38021 ft 406 kts 274°
2026-05-04 11:50 51.34545 12.15220 38019 ft 406 kts 274°
2026-05-04 11:50 51.35164 12.06245 38024 ft 406 kts 274°
2026-05-04 11:51 51.35780 11.97262 38021 ft 406 kts 273°
2026-05-04 11:51 51.36379 11.88291 38019 ft 405 kts 273°
2026-05-04 11:52 51.36973 11.79313 38016 ft 405 kts 273°
2026-05-04 11:52 51.37564 11.70394 38018 ft 405 kts 273°
2026-05-04 11:53 51.38152 11.61427 38023 ft 405 kts 273°
2026-05-04 11:53 51.38725 11.52453 38021 ft 405 kts 273°
2026-05-04 11:55 51.40854 11.18046 38021 ft 405 kts 272°
2026-05-04 11:56 51.41403 11.09070 38019 ft 405 kts 272°
2026-05-04 11:56 51.41941 11.00103 38019 ft 404 kts 272°
2026-05-04 11:57 51.42470 10.91136 38023 ft 404 kts 272°
2026-05-04 11:57 51.42994 10.82167 38024 ft 404 kts 272°
2026-05-04 11:58 51.43504 10.73202 38024 ft 404 kts 272°
2026-05-04 11:58 51.44001 10.64308 38017 ft 403 kts 272°
2026-05-04 11:59 51.44496 10.55367 38019 ft 402 kts 271°
2026-05-04 11:59 51.44972 10.46439 38010 ft 402 kts 271°
2026-05-04 12:00 51.45395 10.37505 38024 ft 401 kts 271°
2026-05-04 12:00 51.45792 10.28580 38000 ft 401 kts 271°
2026-05-04 12:01 51.46191 10.19659 38001 ft 401 kts 271°
2026-05-04 12:02 51.47556 9.88432 38009 ft 401 kts 270°
2026-05-04 12:03 51.47929 9.79568 38010 ft 401 kts 270°
2026-05-04 12:03 51.48300 9.70640 38017 ft 401 kts 270°
2026-05-04 12:04 51.48666 9.61718 38013 ft 401 kts 270°
2026-05-04 12:04 51.49021 9.52804 38018 ft 400 kts 270°
2026-05-04 12:05 51.49368 9.43879 38017 ft 401 kts 270°
2026-05-04 12:05 51.49699 9.34956 38015 ft 401 kts 269°
2026-05-04 12:06 51.50025 9.26027 38012 ft 401 kts 269°
2026-05-04 12:06 51.50358 9.17102 38006 ft 401 kts 269°
2026-05-04 12:07 51.50701 9.08170 38004 ft 401 kts 270°
2026-05-04 12:07 51.51247 8.99237 37995 ft 402 kts 272°
2026-05-04 12:08 51.51866 8.90306 38000 ft 403 kts 272°
2026-05-04 12:08 51.52445 8.81361 38002 ft 403 kts 271°
2026-05-04 12:09 51.52977 8.72408 38004 ft 403 kts 271°
2026-05-04 12:09 51.53506 8.63434 38009 ft 404 kts 271°
2026-05-04 12:10 51.54045 8.54450 38014 ft 404 kts 271°
2026-05-04 12:10 51.54578 8.45445 38012 ft 405 kts 271°
2026-05-04 12:11 51.55097 8.36445 38010 ft 405 kts 271°
2026-05-04 12:11 51.55605 8.27492 38007 ft 405 kts 271°
2026-05-04 12:12 51.56107 8.18474 38002 ft 405 kts 271°
2026-05-04 12:12 51.56606 8.09459 37991 ft 405 kts 271°
2026-05-04 12:14 51.58544 7.73318 37982 ft 406 kts 271°
2026-05-04 12:15 51.59007 7.64308 37984 ft 407 kts 270°
2026-05-04 12:15 51.59464 7.55223 37984 ft 407 kts 270°
2026-05-04 12:16 51.59915 7.46136 37984 ft 408 kts 270°
2026-05-04 12:16 51.60367 7.37047 37987 ft 408 kts 270°
2026-05-04 12:17 51.60812 7.27917 37990 ft 409 kts 270°
2026-05-04 12:17 51.61246 7.18784 37990 ft 409 kts 270°
2026-05-04 12:18 51.61667 7.09655 37987 ft 409 kts 270°
2026-05-04 12:18 51.62088 7.00519 37987 ft 410 kts 270°
2026-05-04 12:19 51.62499 6.91371 37983 ft 410 kts 270°
2026-05-04 12:19 51.62904 6.82217 37987 ft 410 kts 270°
2026-05-04 12:20 51.63306 6.73105 37985 ft 411 kts 270°
2026-05-04 12:20 51.63700 6.63931 37985 ft 411 kts 270°
2026-05-04 12:21 51.64084 6.54755 37991 ft 411 kts 270°
2026-05-04 12:21 51.64462 6.45577 37993 ft 411 kts 270°
2026-05-04 12:22 51.64835 6.36389 37994 ft 411 kts 270°
2026-05-04 12:22 51.65197 6.27191 37997 ft 412 kts 270°
2026-05-04 12:23 51.65558 6.17982 37997 ft 412 kts 270°
2026-05-04 12:23 51.65911 6.08760 37996 ft 412 kts 270°
2026-05-04 12:24 51.66256 5.99534 37996 ft 413 kts 270°
2026-05-04 12:24 51.66596 5.90298 38001 ft 413 kts 269°
2026-05-04 12:25 51.66928 5.81055 38001 ft 414 kts 269°
2026-05-04 12:25 51.67242 5.71795 38003 ft 414 kts 269°
2026-05-04 12:26 51.67558 5.62506 38007 ft 415 kts 269°
2026-05-04 12:26 51.67867 5.53265 38006 ft 416 kts 269°
2026-05-04 12:27 51.68172 5.43955 38001 ft 416 kts 269°
2026-05-04 12:27 51.68472 5.34641 37998 ft 417 kts 269°
2026-05-04 12:28 51.68763 5.25310 37993 ft 417 kts 269°
2026-05-04 12:28 51.69045 5.15956 37995 ft 418 kts 269°
2026-05-04 12:29 51.69316 5.06591 37998 ft 419 kts 269°
2026-05-04 12:29 51.69588 4.97208 37999 ft 420 kts 269°
2026-05-04 12:30 51.69854 4.87811 37996 ft 420 kts 269°
2026-05-04 12:30 51.70105 4.78391 37990 ft 420 kts 269°
2026-05-04 12:31 51.70353 4.68973 37984 ft 421 kts 269°
2026-05-04 12:31 51.70589 4.59585 37979 ft 422 kts 269°
2026-05-04 12:32 51.70935 4.45384 37977 ft 422 kts 269°
2026-05-04 12:33 51.71155 4.35908 37988 ft 423 kts 269°
2026-05-04 12:33 51.71368 4.26434 37989 ft 423 kts 269°
2026-05-04 12:34 51.71579 4.16946 37993 ft 424 kts 269°
2026-05-04 12:34 51.71779 4.07431 37997 ft 424 kts 268°
2026-05-04 12:35 51.71966 3.97919 37998 ft 425 kts 268°
2026-05-04 12:35 51.72143 3.88453 38004 ft 425 kts 268°
2026-05-04 12:36 51.72324 3.78910 38007 ft 425 kts 268°
2026-05-04 12:36 51.72461 3.70981 38012 ft 426 kts 268°
2026-05-04 12:37 51.72593 3.60899 38009 ft 426 kts 268°
2026-05-04 12:37 51.72769 3.51343 38015 ft 426 kts 268°
2026-05-04 12:38 51.72940 3.41774 38016 ft 427 kts 268°
2026-05-04 12:38 51.73088 3.32192 38013 ft 427 kts 268°
2026-05-04 12:39 51.73214 3.22677 38015 ft 427 kts 268°
2026-05-04 12:39 51.72936 3.13152 38013 ft 424 kts 259°
2026-05-04 12:40 51.72118 3.03735 38011 ft 424 kts 259°
2026-05-04 12:40 51.71302 2.94304 38008 ft 425 kts 259°
2026-05-04 12:41 51.70484 2.84863 38010 ft 425 kts 259°
2026-05-04 12:41 51.69653 2.75430 38010 ft 425 kts 259°
2026-05-04 12:42 51.68805 2.65988 38014 ft 426 kts 259°
2026-05-04 12:42 51.67953 2.56536 38014 ft 426 kts 259°
2026-05-04 12:43 51.67108 2.47128 38015 ft 427 kts 259°
2026-05-04 12:43 51.66239 2.37678 38016 ft 427 kts 259°
2026-05-04 12:44 51.65360 2.28213 38021 ft 427 kts 259°
2026-05-04 12:44 51.64624 2.20278 38020 ft 428 kts 259°
2026-05-04 12:45 51.63742 2.10860 38020 ft 428 kts 259°
2026-05-04 12:45 51.62851 2.01378 38020 ft 429 kts 259°
2026-05-04 12:46 51.61965 1.91895 38019 ft 429 kts 259°
2026-05-04 12:46 51.61085 1.82384 38018 ft 430 kts 259°
2026-05-04 12:47 51.60193 1.72855 38026 ft 430 kts 259°
2026-05-04 12:47 51.59295 1.63329 38021 ft 431 kts 262°
2026-05-04 12:48 51.59398 1.53648 38022 ft 435 kts 271°
2026-05-04 12:48 51.59828 1.43946 38021 ft 435 kts 271°
2026-05-04 12:49 51.60241 1.34291 38022 ft 436 kts 271°
2026-05-04 12:49 51.60639 1.24559 38024 ft 436 kts 271°
2026-05-04 12:50 51.61037 1.14814 38024 ft 437 kts 271°
2026-05-04 12:50 51.61425 1.05052 38026 ft 437 kts 271°
2026-05-04 12:51 51.61799 0.95283 38029 ft 438 kts 271°
2026-05-04 12:51 51.62172 0.85492 38028 ft 438 kts 271°
2026-05-04 12:52 51.62541 0.75686 38033 ft 439 kts 271°
2026-05-04 12:52 51.62899 0.65894 38031 ft 439 kts 271°
2026-05-04 12:53 51.63242 0.56063 38029 ft 440 kts 271°
2026-05-04 12:53 51.63587 0.46244 38031 ft 440 kts 271°
2026-05-04 12:54 51.63918 0.36398 38025 ft 440 kts 271°
2026-05-04 12:54 51.64240 0.26550 38036 ft 441 kts 271°
2026-05-04 12:55 51.64516 0.16687 38028 ft 441 kts 267°
2026-05-04 12:55 51.63741 0.06913 37081 ft 444 kts 258°
2026-05-04 12:55 51.63210 0.01997 36171 ft 447 kts 258°
2026-05-04 12:56 51.62674 -0.02906 35472 ft 444 kts 258°
2026-05-04 12:56 51.62135 -0.07796 34733 ft 442 kts 257°
2026-05-04 12:56 51.61599 -0.12676 33933 ft 443 kts 258°
2026-05-04 12:56 51.61135 -0.17471 33338 ft 437 kts 259°
2026-05-04 12:57 51.60735 -0.22288 32782 ft 430 kts 260°
2026-05-04 12:57 51.60373 -0.27087 32213 ft 424 kts 260°
2026-05-04 12:57 51.60032 -0.31692 31630 ft 418 kts 260°
2026-05-04 12:57 51.59682 -0.36309 31097 ft 412 kts 259°
2026-05-04 12:58 51.59320 -0.40853 30572 ft 407 kts 259°
2026-05-04 12:58 51.58946 -0.45334 30043 ft 402 kts 258°
2026-05-04 12:58 51.58570 -0.49762 29483 ft 397 kts 258°
2026-05-04 12:58 51.58196 -0.54125 28997 ft 390 kts 258°
2026-05-04 12:59 51.57827 -0.58412 28521 ft 385 kts 259°
2026-05-04 12:59 51.57461 -0.62639 28052 ft 379 kts 259°
2026-05-04 12:59 51.57099 -0.66815 27601 ft 375 kts 259°
2026-05-04 12:59 51.56740 -0.70940 27159 ft 371 kts 259°
2026-05-04 13:00 51.56380 -0.75021 26724 ft 367 kts 259°
2026-05-04 13:00 51.56027 -0.79054 26299 ft 363 kts 259°
2026-05-04 13:00 51.55680 -0.83054 25880 ft 359 kts 259°
2026-05-04 13:00 51.55332 -0.87012 25443 ft 356 kts 259°
2026-05-04 13:01 51.54985 -0.90936 25007 ft 353 kts 259°
2026-05-04 13:01 51.54641 -0.94822 24579 ft 350 kts 259°
2026-05-04 13:01 51.54298 -0.98674 24135 ft 348 kts 260°
2026-05-04 13:01 51.53955 -1.02511 23694 ft 345 kts 260°
2026-05-04 13:02 51.53612 -1.06323 23191 ft 344 kts 260°
2026-05-04 13:02 51.53268 -1.10106 22743 ft 341 kts 259°
2026-05-04 13:02 51.52944 -1.13811 22306 ft 339 kts 263°
2026-05-04 13:02 51.52923 -1.17593 21861 ft 339 kts 273°
2026-05-04 13:03 51.53300 -1.21316 21491 ft 337 kts 279°
2026-05-04 13:03 51.53749 -1.24997 21117 ft 334 kts 278°
2026-05-04 13:03 51.54184 -1.28646 20756 ft 331 kts 278°
2026-05-04 13:03 51.54611 -1.32264 20390 ft 328 kts 278°
2026-05-04 13:04 51.55031 -1.35854 20025 ft 327 kts 278°
2026-05-04 13:04 51.55447 -1.39431 19659 ft 325 kts 278°
2026-05-04 13:04 51.55863 -1.42988 19299 ft 323 kts 278°
2026-05-04 13:04 51.56278 -1.46523 18957 ft 321 kts 278°
2026-05-04 13:05 51.56691 -1.50038 18603 ft 319 kts 278°
2026-05-04 13:05 51.57097 -1.53533 18235 ft 318 kts 278°
2026-05-04 13:05 51.57498 -1.57012 17859 ft 316 kts 278°
2026-05-04 13:05 51.57895 -1.60466 17497 ft 313 kts 278°
2026-05-04 13:06 51.58289 -1.63896 17151 ft 310 kts 278°
2026-05-04 13:06 51.58652 -1.67305 16800 ft 308 kts 276°
2026-05-04 13:06 51.58933 -1.70706 16459 ft 306 kts 275°
2026-05-04 13:06 51.59170 -1.74098 16115 ft 304 kts 274°
2026-05-04 13:07 51.59393 -1.77492 15771 ft 304 kts 274°
2026-05-04 13:07 51.59614 -1.80864 15430 ft 303 kts 274°
2026-05-04 13:07 51.59837 -1.84239 15087 ft 302 kts 272°
2026-05-04 13:07 51.59793 -1.87591 14748 ft 299 kts 260°
2026-05-04 13:08 51.59314 -1.90819 14410 ft 296 kts 248°
2026-05-04 13:08 51.58438 -1.93784 14080 ft 293 kts 237°
2026-05-04 13:08 51.57338 -1.96540 13737 ft 292 kts 236°
2026-05-04 13:08 51.56242 -1.99278 13393 ft 290 kts 236°
2026-05-04 13:09 51.55156 -2.01999 13063 ft 288 kts 236°
2026-05-04 13:09 51.54095 -2.04656 12762 ft 285 kts 236°
2026-05-04 13:09 51.53055 -2.07289 12671 ft 274 kts 239°
2026-05-04 13:09 51.52272 -2.10041 12413 ft 271 kts 249°
2026-05-04 13:10 51.51628 -2.12896 12014 ft 273 kts 248°
2026-05-04 13:10 51.50978 -2.15772 11635 ft 274 kts 249°
2026-05-04 13:10 51.50331 -2.18647 11265 ft 274 kts 249°
2026-05-04 13:10 51.49680 -2.21528 10881 ft 275 kts 249°
2026-05-04 13:11 51.49026 -2.24412 10494 ft 275 kts 248°
2026-05-04 13:11 51.48370 -2.27295 10129 ft 275 kts 248°
2026-05-04 13:11 51.47714 -2.30177 9743 ft 275 kts 248°
2026-05-04 13:11 51.47060 -2.33053 9354 ft 273 kts 248°
2026-05-04 13:12 51.46410 -2.35903 8973 ft 271 kts 248°
2026-05-04 13:12 51.45763 -2.38734 8608 ft 269 kts 248°
2026-05-04 13:12 51.45120 -2.41537 8246 ft 266 kts 248°
2026-05-04 13:12 51.44482 -2.44309 7888 ft 264 kts 248°
2026-05-04 13:13 51.43849 -2.47058 7530 ft 262 kts 248°
2026-05-04 13:13 51.43221 -2.49789 7179 ft 260 kts 248°
2026-05-04 13:13 51.42600 -2.52498 6827 ft 258 kts 248°
2026-05-04 13:13 51.41999 -2.55111 6703 ft 246 kts 248°
2026-05-04 13:14 51.41423 -2.57612 6607 ft 233 kts 248°
2026-05-04 13:14 51.40873 -2.59984 6513 ft 224 kts 248°
2026-05-04 13:14 51.40333 -2.62308 6421 ft 222 kts 248°
2026-05-04 13:14 51.39794 -2.64624 6323 ft 222 kts 248°
2026-05-04 13:15 51.39257 -2.66938 6221 ft 222 kts 248°
2026-05-04 13:15 51.38722 -2.69249 6125 ft 221 kts 248°
2026-05-04 13:15 51.38341 -2.71628 6031 ft 222 kts 265°
2026-05-04 13:15 51.38509 -2.74084 5787 ft 224 kts 284°
2026-05-04 13:16 51.38906 -2.76480 5529 ft 222 kts 284°
2026-05-04 13:16 51.39291 -2.78865 5283 ft 220 kts 283°
2026-05-04 13:16 51.39672 -2.81239 5046 ft 220 kts 283°
2026-05-04 13:16 51.40050 -2.83605 4804 ft 219 kts 283°
2026-05-04 13:17 51.40426 -2.85969 4558 ft 218 kts 283°
2026-05-04 13:17 51.40797 -2.88319 4321 ft 217 kts 283°
2026-05-04 13:17 51.41166 -2.90664 4081 ft 217 kts 284°
2026-05-04 13:17 51.41534 -2.92990 3861 ft 214 kts 284°
2026-05-04 13:18 51.41735 -2.95313 3663 ft 208 kts 261°
2026-05-04 13:18 51.41148 -2.97313 3543 ft 196 kts 223°
2026-05-04 13:18 51.39991 -2.98287 3440 ft 186 kts 185°
2026-05-04 13:18 51.38761 -2.98048 3484 ft 177 kts 155°
2026-05-04 13:19 51.37802 -2.96868 3425 ft 174 kts 125°
2026-05-04 13:19 51.37444 -2.95736 3345 ft 171 kts 106°
2026-05-04 13:19 51.37406 -2.93358 3115 ft 152 kts 86°
2026-05-04 13:19 51.37473 -2.91726 2922 ft 142 kts 86°
2026-05-04 13:20 51.37536 -2.90193 2746 ft 135 kts 86°
2026-05-04 13:20 51.37597 -2.88703 2575 ft 133 kts 86°
2026-05-04 13:20 51.37657 -2.87228 2399 ft 132 kts 85°
2026-05-04 13:20 51.37716 -2.85762 2213 ft 132 kts 85°
2026-05-04 13:21 51.37774 -2.84314 2061 ft 128 kts 85°
2026-05-04 13:21 51.37832 -2.82889 1874 ft 128 kts 84°
2026-05-04 13:21 51.37888 -2.81489 1698 ft 128 kts 84°
2026-05-04 13:21 51.37945 -2.80070 1512 ft 128 kts 83°
2026-05-04 13:22 51.38001 -2.78649 1345 ft 128 kts 82°
2026-05-04 13:22 51.38057 -2.77227 1154 ft 128 kts 83°
2026-05-04 13:22 51.38114 -2.75803 983 ft 129 kts 81°
2026-05-04 13:22 51.38171 -2.74365 796 ft 131 kts 83°
2026-05-04 13:23 51.38230 -2.72912 623 ft 128 kts 82°
2026-05-04 13:23 51.38279 -2.71724 617 ft 83 kts 88°
2026-05-04 13:23 51.38303 -2.71076 610 ft 35 kts 88°
2026-05-04 13:23 51.38307 -2.70917 620 ft 0 kts 88°
2026-05-04 13:24 51.38307 -2.70914 620 ft 2 kts 88°
2026-05-04 13:24 51.38319 -2.70790 609 ft 16 kts 53°
2026-05-04 13:24 51.38404 -2.70727 615 ft 11 kts 20°
2026-05-04 13:25 51.38417 -2.70719 619 ft 0 kts 20°
2026-05-04 13:26 51.38419 -2.70718 617 ft 3 kts 20°
2026-05-04 13:26 51.38468 -2.70743 619 ft 9 kts 303°
2026-05-04 13:26 51.38468 -2.70840 616 ft 8 kts 266°
2026-05-04 13:26 51.38464 -2.70922 611 ft 7 kts 266°
2026-05-04 13:27 51.38461 -2.70994 612 ft 8 kts 267°
2026-05-04 13:27 51.38456 -2.71162 613 ft 20 kts 267°
2026-05-04 13:27 51.38448 -2.71325 613 ft 9 kts 266°
2026-05-04 13:27 51.38468 -2.71396 623 ft 6 kts 342°
2026-05-04 13:28 51.38496 -2.71428 622 ft 8 kts 301°
2026-05-04 13:28 51.38505 -2.71531 622 ft 7 kts 323°
2026-05-04 13:28 51.38553 -2.71535 614 ft 0 kts 358°